Time,TemperatureF,DewpointF,PressureIn,WindDirection,WindDirectionDegrees,WindSpeedMPH,WindSpeedGustMPH,Humidity,HourlyPrecipIn,Conditions,Clouds,dailyrainin,SoftwareType,DateUTC
2013-06-28 00:01:00,66.4,64.9,29.70,West,279,0.0,2.0,95,0.09,,,0.00,WUHU216DAVISVP2,2013-06-28 04:01:00,
2013-06-28 00:09:00,66.2,64.7,29.69,West,280,1.0,1.0,95,0.02,,,0.00,WUHU216DAVISVP2,2013-06-28 04:09:00,
2013-06-28 00:17:00,66.1,64.6,29.70,NE,54,1.0,2.0,95,0.00,,,0.00,WUHU216DAVISVP2,2013-06-28 04:17:00,
2013-06-28 00:28:00,66.1,64.6,29.69,NE,56,0.0,1.0,95,0.00,,,0.00,WUHU216DAVISVP2,2013-06-28 04:28:00,
2013-06-28 00:39:00,66.2,64.7,29.70,NE,54,0.0,1.0,95,0.01,,,0.01,WUHU216DAVISVP2,2013-06-28 04:39:00,
2013-06-28 00:47:00,66.2,64.7,29.70,NE,53,0.0,1.0,95,0.01,,,0.01,WUHU216DAVISVP2,2013-06-28 04:47:00,
2013-06-28 00:55:00,66.1,64.6,29.69,NE,53,0.0,1.0,95,0.01,,,0.01,WUHU216DAVISVP2,2013-06-28 04:55:00,
2013-06-28 01:05:00,65.9,64.4,29.68,NE,54,1.0,1.0,95,0.01,,,0.01,WUHU216DAVISVP2,2013-06-28 05:05:00,
2013-06-28 01:16:00,65.5,64.0,29.68,NE,53,0.0,1.0,95,0.01,,,0.01,WUHU216DAVISVP2,2013-06-28 05:16:00,
2013-06-28 01:24:00,65.3,63.8,29.67,NE,54,0.0,0.0,95,0.01,,,0.01,WUHU216DAVISVP2,2013-06-28 05:24:00,
2013-06-28 01:32:00,64.9,63.4,29.67,NE,53,0.0,0.0,95,0.01,,,0.01,WUHU216DAVISVP2,2013-06-28 05:32:00,
2013-06-28 01:43:00,64.9,63.4,29.67,NE,53,0.0,1.0,95,0.00,,,0.01,WUHU216DAVISVP2,2013-06-28 05:43:00,
2013-06-28 01:53:00,64.6,63.1,29.68,WSW,254,0.0,1.0,95,0.00,,,0.01,WUHU216DAVISVP2,2013-06-28 05:53:00,
2013-06-28 02:02:00,64.8,63.3,29.67,WSW,255,1.0,1.0,95,0.00,,,0.01,WUHU216DAVISVP2,2013-06-28 06:02:00,
2013-06-28 02:10:00,64.8,63.3,29.67,WSW,254,0.0,1.0,95,0.00,,,0.01,WUHU216DAVISVP2,2013-06-28 06:10:00,
2013-06-28 02:20:00,64.9,63.4,29.67,WSW,255,0.0,1.0,95,0.00,,,0.01,WUHU216DAVISVP2,2013-06-28 06:20:00,
2013-06-28 02:31:00,64.9,63.4,29.67,WSW,254,0.0,1.0,95,0.00,,,0.01,WUHU216DAVISVP2,2013-06-28 06:31:00,
2013-06-28 02:39:00,64.5,63.0,29.67,WSW,254,0.0,0.0,95,0.00,,,0.01,WUHU216DAVISVP2,2013-06-28 06:39:00,
2013-06-28 02:47:00,64.6,63.1,29.66,WSW,254,0.0,0.0,95,0.00,,,0.01,WUHU216DAVISVP2,2013-06-28 06:47:00,
2013-06-28 02:57:00,64.4,62.9,29.66,WSW,255,0.0,0.0,95,0.00,,,0.01,WUHU216DAVISVP2,2013-06-28 06:57:00,
2013-06-28 03:08:00,64.3,62.8,29.66,WSW,255,0.0,0.0,95,0.00,,,0.01,WUHU216DAVISVP2,2013-06-28 07:08:00,
2013-06-28 03:16:00,64.3,62.8,29.66,WSW,254,0.0,0.0,95,0.00,,,0.01,WUHU216DAVISVP2,2013-06-28 07:16:00,
2013-06-28 03:24:00,64.3,62.8,29.66,WSW,254,0.0,0.0,95,0.00,,,0.01,WUHU216DAVISVP2,2013-06-28 07:24:00,
2013-06-28 03:35:00,64.2,62.7,29.65,WSW,255,0.0,0.0,95,0.00,,,0.01,WUHU216DAVISVP2,2013-06-28 07:35:00,
2013-06-28 03:46:00,64.2,62.7,29.65,WSW,254,0.0,0.0,95,0.00,,,0.01,WUHU216DAVISVP2,2013-06-28 07:46:00,
2013-06-28 03:54:00,64.0,62.5,29.65,WSW,254,0.0,0.0,95,0.00,,,0.01,WUHU216DAVISVP2,2013-06-28 07:54:00,
2013-06-28 04:02:00,64.0,62.5,29.65,WSW,255,0.0,0.0,95,0.00,,,0.01,WUHU216DAVISVP2,2013-06-28 08:02:00,
2013-06-28 04:12:00,63.8,62.3,29.65,WSW,254,0.0,0.0,95,0.00,,,0.01,WUHU216DAVISVP2,2013-06-28 08:12:00,
2013-06-28 04:23:00,63.9,62.4,29.65,WSW,254,0.0,0.0,95,0.00,,,0.01,WUHU216DAVISVP2,2013-06-28 08:23:00,
2013-06-28 04:31:00,63.9,62.4,29.65,WSW,255,0.0,0.0,95,0.00,,,0.01,WUHU216DAVISVP2,2013-06-28 08:31:00,
2013-06-28 04:39:00,64.0,62.5,29.65,WSW,255,0.0,0.0,95,0.00,,,0.01,WUHU216DAVISVP2,2013-06-28 08:39:00,
2013-06-28 04:49:00,64.1,62.6,29.66,WSW,255,0.0,0.0,95,0.00,,,0.01,WUHU216DAVISVP2,2013-06-28 08:49:00,
2013-06-28 05:00:00,64.3,62.8,29.65,WSW,255,0.0,0.0,95,0.00,,,0.01,WUHU216DAVISVP2,2013-06-28 09:00:00,
2013-06-28 05:08:00,64.4,62.9,29.65,WSW,255,0.0,1.0,95,0.00,,,0.01,WUHU216DAVISVP2,2013-06-28 09:08:00,
2013-06-28 05:16:00,64.7,63.2,29.65,ESE,112,1.0,1.0,95,0.00,,,0.01,WUHU216DAVISVP2,2013-06-28 09:16:00,
2013-06-28 05:27:00,64.7,63.2,29.64,ESE,111,0.0,1.0,95,0.01,,,0.02,WUHU216DAVISVP2,2013-06-28 09:27:00,
2013-06-28 05:38:00,64.9,63.4,29.64,ESE,111,0.0,1.0,95,0.02,,,0.03,WUHU216DAVISVP2,2013-06-28 09:38:00,
2013-06-28 05:46:00,64.9,63.4,29.64,ESE,112,0.0,1.0,95,0.02,,,0.03,WUHU216DAVISVP2,2013-06-28 09:46:00,
2013-06-28 05:54:00,65.0,63.5,29.64,ESE,111,0.0,1.0,95,0.03,,,0.04,WUHU216DAVISVP2,2013-06-28 09:54:00,
2013-06-28 06:04:00,65.2,63.7,29.63,ESE,107,0.0,1.0,95,0.03,,,0.04,WUHU216DAVISVP2,2013-06-28 10:04:00,
2013-06-28 06:15:00,65.1,63.6,29.64,ESE,107,0.0,1.0,95,0.03,,,0.04,WUHU216DAVISVP2,2013-06-28 10:15:00,
2013-06-28 06:23:00,64.9,63.4,29.63,ESE,108,1.0,1.0,95,0.02,,,0.04,WUHU216DAVISVP2,2013-06-28 10:23:00,
2013-06-28 06:31:00,65.0,63.5,29.64,ESE,108,0.0,1.0,95,0.02,,,0.04,WUHU216DAVISVP2,2013-06-28 10:31:00,
2013-06-28 06:41:00,64.7,63.2,29.64,ESE,108,1.0,1.0,95,0.01,,,0.04,WUHU216DAVISVP2,2013-06-28 10:41:00,
2013-06-28 06:52:00,65.1,63.6,29.64,ESE,108,0.0,1.0,95,0.00,,,0.04,WUHU216DAVISVP2,2013-06-28 10:52:00,
2013-06-28 07:00:00,65.4,63.9,29.64,ESE,107,1.0,1.0,95,0.00,,,0.04,WUHU216DAVISVP2,2013-06-28 11:00:00,
2013-06-28 07:08:00,65.6,64.1,29.64,ESE,108,0.0,1.0,95,0.00,,,0.04,WUHU216DAVISVP2,2013-06-28 11:08:00,
2013-06-28 07:19:00,66.3,64.8,29.64,ESE,108,0.0,1.0,95,0.00,,,0.04,WUHU216DAVISVP2,2013-06-28 11:19:00,
2013-06-28 07:30:00,67.5,66.0,29.64,ESE,107,0.0,1.0,95,0.00,,,0.04,WUHU216DAVISVP2,2013-06-28 11:30:00,
2013-06-28 07:38:00,68.9,67.4,29.64,ESE,107,0.0,1.0,95,0.00,,,0.04,WUHU216DAVISVP2,2013-06-28 11:38:00,
2013-06-28 07:46:00,69.3,67.8,29.64,ESE,107,1.0,1.0,95,0.00,,,0.04,WUHU216DAVISVP2,2013-06-28 11:46:00,
2013-06-28 07:56:00,70.1,68.6,29.64,ENE,73,0.0,2.0,95,0.00,,,0.04,WUHU216DAVISVP2,2013-06-28 11:56:00,
2013-06-28 08:07:00,70.6,69.1,29.63,NNW,327,1.2,2.0,95,0.00,,,0.04,WUHU216DAVISVP2,2013-06-28 12:07:00,
2013-06-28 08:15:00,71.1,69.6,29.63,NNW,347,1.1,3.0,95,0.00,,,0.04,WUHU216DAVISVP2,2013-06-28 12:15:00,
2013-06-28 08:23:00,71.2,69.7,29.63,West,280,1.4,3.0,95,0.00,,,0.04,WUHU216DAVISVP2,2013-06-28 12:23:00,
2013-06-28 08:33:00,71.7,70.2,29.63,West,260,1.0,2.0,95,0.00,,,0.04,WUHU216DAVISVP2,2013-06-28 12:33:00,
2013-06-28 08:44:00,72.6,71.1,29.62,SSW,201,0.0,3.0,95,0.00,,,0.04,WUHU216DAVISVP2,2013-06-28 12:44:00,
2013-06-28 08:52:00,73.7,72.1,29.62,West,260,3.0,4.0,95,0.00,,,0.04,WUHU216DAVISVP2,2013-06-28 12:52:00,
2013-06-28 09:01:00,74.9,72.7,29.61,SW,219,1.2,4.0,93,0.00,,,0.04,WUHU216DAVISVP2,2013-06-28 13:01:00,
2013-06-28 09:11:00,75.4,72.3,29.61,SW,216,1.6,5.0,90,0.00,,,0.04,WUHU216DAVISVP2,2013-06-28 13:11:00,
2013-06-28 09:22:00,75.9,72.7,29.61,WNW,287,1.7,5.0,90,0.00,,,0.04,WUHU216DAVISVP2,2013-06-28 13:22:00,
2013-06-28 09:30:00,76.6,73.4,29.61,West,262,1.2,5.0,90,0.00,,,0.04,WUHU216DAVISVP2,2013-06-28 13:30:00,
2013-06-28 09:38:00,77.4,73.6,29.61,West,269,3.0,6.0,88,0.00,,,0.04,WUHU216DAVISVP2,2013-06-28 13:38:00,
2013-06-28 09:48:00,77.2,72.4,29.61,West,278,4.0,7.0,85,0.00,,,0.04,WUHU216DAVISVP2,2013-06-28 13:48:00,
2013-06-28 09:59:00,76.8,72.3,29.60,WSW,243,3.2,8.0,86,0.00,,,0.04,WUHU216DAVISVP2,2013-06-28 13:59:00,
2013-06-28 10:07:00,77.1,72.6,29.60,West,277,2.0,10.0,86,0.00,,,0.04,WUHU216DAVISVP2,2013-06-28 14:07:00,
2013-06-28 10:15:00,76.8,72.0,29.60,NW,322,3.0,10.0,85,0.00,,,0.04,WUHU216DAVISVP2,2013-06-28 14:15:00,
2013-06-28 10:26:00,76.9,72.4,29.60,WSW,256,2.4,9.0,86,0.00,,,0.04,WUHU216DAVISVP2,2013-06-28 14:26:00,
2013-06-28 10:36:00,78.7,73.2,29.60,West,272,2.0,7.0,83,0.00,,,0.04,WUHU216DAVISVP2,2013-06-28 14:36:00,
2013-06-28 10:45:00,79.6,73.0,29.60,West,261,2.3,7.0,80,0.00,,,0.04,WUHU216DAVISVP2,2013-06-28 14:45:00,
2013-06-28 10:53:00,79.6,73.0,29.59,SW,221,4.0,8.0,80,0.00,,,0.04,WUHU216DAVISVP2,2013-06-28 14:53:00,
2013-06-28 11:03:00,80.2,73.6,29.59,NW,314,5.0,8.0,80,0.00,,,0.04,WUHU216DAVISVP2,2013-06-28 15:03:00,
2013-06-28 11:14:00,80.2,72.5,29.59,West,278,3.0,10.0,77,0.00,,,0.04,WUHU216DAVISVP2,2013-06-28 15:14:00,
2013-06-28 11:22:00,80.8,71.9,29.59,West,278,2.8,10.0,74,0.00,,,0.04,WUHU216DAVISVP2,2013-06-28 15:22:00,
2013-06-28 11:30:00,80.8,73.1,29.59,West,260,6.0,9.0,77,0.00,,,0.04,WUHU216DAVISVP2,2013-06-28 15:30:00,
2013-06-28 11:37:00,81.0,72.5,29.59,WNW,288,3.0,9.0,75,0.00,,,0.04,WUHU216DAVISVP2,2013-06-28 15:37:00,
2013-06-28 11:43:00,81.1,72.6,29.59,SW,219,5.0,9.0,75,0.00,,,0.04,WUHU216DAVISVP2,2013-06-28 15:43:00,
2013-06-28 11:51:00,82.0,72.7,29.59,West,269,4.1,9.0,73,0.00,,,0.04,WUHU216DAVISVP2,2013-06-28 15:51:00,
2013-06-28 11:59:00,81.9,71.8,29.58,West,271,4.0,9.0,71,0.00,,,0.04,WUHU216DAVISVP2,2013-06-28 15:59:00,
2013-06-28 12:07:00,82.4,72.7,29.58,West,263,4.0,9.0,72,0.00,,,0.04,WUHU216DAVISVP2,2013-06-28 16:07:00,
2013-06-28 12:18:00,81.0,71.7,29.59,West,262,4.0,10.0,73,0.00,,,0.04,WUHU216DAVISVP2,2013-06-28 16:18:00,
2013-06-28 12:28:00,81.7,73.9,29.58,West,279,1.9,9.0,77,0.00,,,0.04,WUHU216DAVISVP2,2013-06-28 16:28:00,
2013-06-28 12:37:00,82.4,71.6,29.58,West,270,3.5,7.0,70,0.00,,,0.04,WUHU216DAVISVP2,2013-06-28 16:37:00,
2013-06-28 12:45:00,83.4,71.3,29.58,West,261,4.3,12.0,67,0.00,,,0.04,WUHU216DAVISVP2,2013-06-28 16:45:00,
2013-06-28 12:55:00,82.8,70.3,29.57,SW,222,8.0,13.0,66,0.00,,,0.04,WUHU216DAVISVP2,2013-06-28 16:55:00,
2013-06-28 13:06:00,83.2,70.5,29.57,West,271,2.4,12.0,65,0.00,,,0.04,WUHU216DAVISVP2,2013-06-28 17:06:00,
2013-06-28 13:14:00,82.8,69.4,29.57,WNW,285,5.2,13.0,64,0.00,,,0.04,WUHU216DAVISVP2,2013-06-28 17:14:00,
2013-06-28 13:22:00,81.9,69.0,29.58,WSW,258,4.8,13.0,65,0.00,,,0.04,WUHU216DAVISVP2,2013-06-28 17:22:00,
2013-06-28 13:32:00,81.1,67.8,29.57,West,270,5.1,11.0,64,0.00,,,0.04,WUHU216DAVISVP2,2013-06-28 17:32:00,
2013-06-28 13:43:00,79.3,67.8,29.58,SSW,194,5.0,12.0,68,0.00,,,0.04,WUHU216DAVISVP2,2013-06-28 17:43:00,
2013-06-28 13:51:00,75.8,69.2,29.57,NNE,23,3.1,12.0,80,0.12,,,0.16,WUHU216DAVISVP2,2013-06-28 17:51:00,
2013-06-28 13:59:00,72.6,68.2,29.58,ENE,66,1.7,8.0,86,0.19,,,0.23,WUHU216DAVISVP2,2013-06-28 17:59:00,
2013-06-28 14:10:00,74.8,71.3,29.56,ENE,74,1.0,4.0,89,0.19,,,0.23,WUHU216DAVISVP2,2013-06-28 18:10:00,
2013-06-28 14:21:00,77.5,72.6,29.56,ENE,61,2.0,2.0,85,0.19,,,0.23,WUHU216DAVISVP2,2013-06-28 18:21:00,
2013-06-28 14:29:00,79.3,73.3,29.56,North,5,1.1,2.0,82,0.19,,,0.23,WUHU216DAVISVP2,2013-06-28 18:29:00,
2013-06-28 14:37:00,81.0,74.2,29.56,WNW,291,2.1,5.0,80,0.19,,,0.23,WUHU216DAVISVP2,2013-06-28 18:37:00,
2013-06-28 14:47:00,82.8,71.6,29.55,West,260,4.1,8.0,69,0.16,,,0.23,WUHU216DAVISVP2,2013-06-28 18:47:00,
2013-06-28 14:58:00,83.4,71.6,29.54,WSW,252,3.2,7.0,67,0.00,,,0.23,WUHU216DAVISVP2,2013-06-28 18:58:00,
2013-06-28 15:06:00,84.0,71.2,29.54,West,267,4.3,10.0,65,0.00,,,0.23,WUHU216DAVISVP2,2013-06-28 19:06:00,
2013-06-28 15:14:00,84.2,69.1,29.54,West,265,4.4,10.0,60,0.00,,,0.23,WUHU216DAVISVP2,2013-06-28 19:14:00,
2013-06-28 15:24:00,83.4,70.7,29.54,WNW,288,5.0,11.0,65,0.00,,,0.23,WUHU216DAVISVP2,2013-06-28 19:24:00,
2013-06-28 15:35:00,84.1,69.5,29.54,West,267,7.0,11.0,61,0.00,,,0.23,WUHU216DAVISVP2,2013-06-28 19:35:00,
2013-06-28 15:43:00,84.9,70.2,29.54,West,272,2.7,10.0,61,0.00,,,0.23,WUHU216DAVISVP2,2013-06-28 19:43:00,
2013-06-28 15:51:00,85.1,69.4,29.53,WSW,258,2.1,8.0,59,0.00,,,0.23,WUHU216DAVISVP2,2013-06-28 19:51:00,
2013-06-28 16:02:00,84.4,67.2,29.53,West,266,4.8,8.0,56,0.00,,,0.23,WUHU216DAVISVP2,2013-06-28 20:02:00,
2013-06-28 16:13:00,85.0,70.3,29.52,WSW,254,1.7,8.0,61,0.00,,,0.23,WUHU216DAVISVP2,2013-06-28 20:13:00,
2013-06-28 16:21:00,85.1,68.9,29.52,SW,229,5.0,8.0,58,0.00,,,0.23,WUHU216DAVISVP2,2013-06-28 20:21:00,
2013-06-28 16:29:00,84.9,69.7,29.53,ESE,122,6.0,10.0,60,0.00,,,0.23,WUHU216DAVISVP2,2013-06-28 20:29:00,
2013-06-28 16:39:00,83.1,67.0,29.52,West,262,3.4,13.0,58,0.00,,,0.23,WUHU216DAVISVP2,2013-06-28 20:39:00,
2013-06-28 16:50:00,84.1,69.0,29.52,WSW,254,4.0,8.0,60,0.00,,,0.23,WUHU216DAVISVP2,2013-06-28 20:50:00,
2013-06-28 16:58:00,84.2,70.0,29.52,WNW,294,3.0,7.0,62,0.00,,,0.23,WUHU216DAVISVP2,2013-06-28 20:58:00,
2013-06-28 17:06:00,83.8,68.2,29.52,West,261,2.1,7.0,59,0.00,,,0.23,WUHU216DAVISVP2,2013-06-28 21:06:00,
2013-06-28 17:16:00,84.3,68.2,29.51,WNW,288,2.2,7.0,58,0.00,,,0.23,WUHU216DAVISVP2,2013-06-28 21:16:00,
2013-06-28 17:27:00,78.7,65.7,29.53,NW,313,5.2,15.0,64,0.00,,,0.23,WUHU216DAVISVP2,2013-06-28 21:27:00,
2013-06-28 17:35:00,75.9,64.8,29.54,WNW,288,4.0,15.0,68,0.00,,,0.23,WUHU216DAVISVP2,2013-06-28 21:35:00,
2013-06-28 17:44:00,74.1,65.1,29.54,WNW,302,2.3,15.0,73,0.01,,,0.24,WUHU216DAVISVP2,2013-06-28 21:44:00,
2013-06-28 17:54:00,70.9,64.9,29.57,NW,308,3.2,15.0,81,0.10,,,0.33,WUHU216DAVISVP2,2013-06-28 21:54:00,
2013-06-28 18:05:00,68.5,64.2,29.58,WNW,291,1.3,10.0,86,0.21,,,0.44,WUHU216DAVISVP2,2013-06-28 22:05:00,
2013-06-28 18:13:00,67.7,64.0,29.59,WNW,299,2.4,10.0,88,0.27,,,0.50,WUHU216DAVISVP2,2013-06-28 22:13:00,
2013-06-28 18:21:00,67.2,63.8,29.58,NW,310,1.4,5.0,89,0.30,,,0.53,WUHU216DAVISVP2,2013-06-28 22:21:00,
2013-06-28 18:31:00,66.7,63.7,29.57,ENE,64,1.7,5.0,90,0.32,,,0.55,WUHU216DAVISVP2,2013-06-28 22:31:00,
2013-06-28 18:42:00,66.7,64.0,29.57,East,97,0.0,3.0,91,0.32,,,0.55,WUHU216DAVISVP2,2013-06-28 22:42:00,
2013-06-28 18:50:00,66.7,64.3,29.57,ESE,114,1.0,2.0,92,0.28,,,0.56,WUHU216DAVISVP2,2013-06-28 22:50:00,
2013-06-28 18:58:00,66.7,64.6,29.57,ESE,115,1.0,2.0,93,0.14,,,0.56,WUHU216DAVISVP2,2013-06-28 22:58:00,
2013-06-28 19:09:00,66.7,64.9,29.57,West,270,0.0,2.0,94,0.09,,,0.56,WUHU216DAVISVP2,2013-06-28 23:09:00,
2013-06-28 19:19:00,66.7,64.9,29.57,West,269,0.0,1.0,94,0.03,,,0.56,WUHU216DAVISVP2,2013-06-28 23:19:00,
2013-06-28 19:28:00,67.6,65.8,29.57,West,270,1.0,1.0,94,0.01,,,0.56,WUHU216DAVISVP2,2013-06-28 23:28:00,
2013-06-28 19:36:00,67.5,65.4,29.57,East,90,0.0,2.0,93,0.01,,,0.56,WUHU216DAVISVP2,2013-06-28 23:36:00,
2013-06-28 19:46:00,67.3,65.2,29.57,South,191,0.0,1.0,93,0.01,,,0.56,WUHU216DAVISVP2,2013-06-28 23:46:00,
2013-06-28 19:57:00,66.9,65.1,29.58,South,191,0.0,0.0,94,0.00,,,0.56,WUHU216DAVISVP2,2013-06-28 23:57:00,
2013-06-28 20:05:00,66.5,64.7,29.58,South,191,0.0,0.0,94,0.00,,,0.56,WUHU216DAVISVP2,2013-06-29 00:05:00,
2013-06-28 20:13:00,66.3,64.5,29.58,South,170,1.0,1.0,94,0.00,,,0.56,WUHU216DAVISVP2,2013-06-29 00:13:00,
2013-06-28 20:23:00,66.2,64.7,29.59,South,171,0.0,1.0,95,0.00,,,0.56,WUHU216DAVISVP2,2013-06-29 00:23:00,
2013-06-28 20:34:00,66.3,64.8,29.59,SSE,161,0.0,1.0,95,0.00,,,0.56,WUHU216DAVISVP2,2013-06-29 00:34:00,
2013-06-28 20:42:00,66.1,64.6,29.60,ESE,111,0.0,2.0,95,0.00,,,0.56,WUHU216DAVISVP2,2013-06-29 00:42:00,
2013-06-28 20:50:00,66.3,64.8,29.60,ESE,112,0.0,1.0,95,0.01,,,0.57,WUHU216DAVISVP2,2013-06-29 00:50:00,
2013-06-28 21:01:00,66.2,64.7,29.60,East,84,1.1,2.0,95,0.01,,,0.57,WUHU216DAVISVP2,2013-06-29 01:01:00,
2013-06-28 21:12:00,66.0,64.5,29.59,ENE,66,0.0,2.0,95,0.01,,,0.57,WUHU216DAVISVP2,2013-06-29 01:12:00,
2013-06-28 21:20:00,65.9,64.4,29.58,ENE,66,1.1,2.0,95,0.01,,,0.57,WUHU216DAVISVP2,2013-06-29 01:20:00,
2013-06-28 21:28:00,65.9,64.4,29.58,ENE,66,0.0,2.0,95,0.01,,,0.57,WUHU216DAVISVP2,2013-06-29 01:28:00,
2013-06-28 21:35:00,66.0,64.5,29.58,ENE,66,1.0,1.0,95,0.01,,,0.57,WUHU216DAVISVP2,2013-06-29 01:35:00,
2013-06-28 21:40:00,66.1,64.6,29.58,ENE,67,0.0,1.0,95,0.01,,,0.57,WUHU216DAVISVP2,2013-06-29 01:40:00,
2013-06-28 21:45:00,66.0,64.5,29.59,NW,308,2.0,2.0,95,0.02,,,0.58,WUHU216DAVISVP2,2013-06-29 01:45:00,
2013-06-28 21:50:00,66.0,64.5,29.62,West,264,3.0,7.0,95,0.01,,,0.58,WUHU216DAVISVP2,2013-06-29 01:50:00,
2013-06-28 21:55:00,66.0,64.5,29.60,West,271,1.0,7.0,95,0.01,,,0.58,WUHU216DAVISVP2,2013-06-29 01:55:00,
2013-06-28 22:00:00,66.0,64.5,29.60,ESE,116,1.0,7.0,95,0.01,,,0.58,WUHU216DAVISVP2,2013-06-29 02:00:00,
2013-06-28 22:05:00,66.0,64.5,29.60,ESE,115,0.0,7.0,95,0.01,,,0.58,WUHU216DAVISVP2,2013-06-29 02:05:00,
2013-06-28 22:10:00,66.1,64.6,29.61,ESE,115,1.0,2.0,95,0.01,,,0.58,WUHU216DAVISVP2,2013-06-29 02:10:00,
2013-06-28 22:15:00,66.1,64.6,29.60,ESE,113,1.0,2.0,95,0.01,,,0.58,WUHU216DAVISVP2,2013-06-29 02:15:00,
2013-06-28 22:20:00,66.0,64.5,29.60,ESE,113,1.0,1.0,95,0.01,,,0.58,WUHU216DAVISVP2,2013-06-29 02:20:00,
2013-06-28 22:25:00,66.0,64.5,29.60,ESE,113,1.0,1.0,95,0.01,,,0.58,WUHU216DAVISVP2,2013-06-29 02:25:00,
2013-06-28 22:30:00,65.9,64.4,29.60,East,83,1.0,2.0,95,0.01,,,0.58,WUHU216DAVISVP2,2013-06-29 02:30:00,
2013-06-28 22:35:00,65.8,64.3,29.59,East,83,0.0,2.0,95,0.01,,,0.58,WUHU216DAVISVP2,2013-06-29 02:35:00,
2013-06-28 22:40:00,65.7,64.2,29.59,ESE,121,1.0,2.0,95,0.01,,,0.58,WUHU216DAVISVP2,2013-06-29 02:40:00,
2013-06-28 22:45:00,65.8,64.3,29.59,ESE,121,0.0,1.0,95,0.00,,,0.58,WUHU216DAVISVP2,2013-06-29 02:45:00,
2013-06-28 22:50:00,65.7,64.2,29.59,ESE,121,0.0,1.0,95,0.00,,,0.58,WUHU216DAVISVP2,2013-06-29 02:50:00,
2013-06-28 22:55:00,65.7,64.2,29.59,ESE,121,0.0,1.0,95,0.00,,,0.58,WUHU216DAVISVP2,2013-06-29 02:55:00,
2013-06-28 23:00:00,65.6,64.1,29.60,ESE,121,1.0,1.0,95,0.00,,,0.58,WUHU216DAVISVP2,2013-06-29 03:00:00,
2013-06-28 23:05:00,65.5,64.0,29.60,ESE,121,0.0,1.0,95,0.00,,,0.58,WUHU216DAVISVP2,2013-06-29 03:05:00,
2013-06-28 23:10:00,65.5,64.0,29.61,ESE,121,0.0,1.0,95,0.00,,,0.58,WUHU216DAVISVP2,2013-06-29 03:10:00,
2013-06-28 23:15:00,65.8,64.3,29.61,West,277,1.0,1.0,95,0.00,,,0.58,WUHU216DAVISVP2,2013-06-29 03:15:00,
2013-06-28 23:20:00,65.6,64.1,29.61,ENE,63,1.0,1.0,95,0.00,,,0.58,WUHU216DAVISVP2,2013-06-29 03:20:00,
2013-06-28 23:25:00,65.4,63.9,29.61,ENE,64,1.0,1.0,95,0.00,,,0.58,WUHU216DAVISVP2,2013-06-29 03:25:00,
2013-06-28 23:30:00,65.5,64.0,29.61,ENE,64,0.0,1.0,95,0.00,,,0.58,WUHU216DAVISVP2,2013-06-29 03:30:00,
2013-06-28 23:35:00,65.4,63.9,29.61,ENE,64,0.0,1.0,95,0.00,,,0.58,WUHU216DAVISVP2,2013-06-29 03:35:00,
2013-06-28 23:40:00,65.3,63.8,29.61,ENE,64,0.0,1.0,95,0.00,,,0.58,WUHU216DAVISVP2,2013-06-29 03:40:00,
2013-06-28 23:45:00,65.2,63.7,29.61,ENE,63,0.0,1.0,95,0.00,,,0.58,WUHU216DAVISVP2,2013-06-29 03:45:00,
2013-06-28 23:50:00,65.2,63.7,29.61,ENE,64,0.0,1.0,95,0.00,,,0.58,WUHU216DAVISVP2,2013-06-29 03:50:00,
2013-06-28 23:55:00,65.2,63.7,29.61,ENE,64,0.0,1.0,95,0.00,,,0.58,WUHU216DAVISVP2,2013-06-29 03:55:00,